Artesia, MS

5:25 AM CDT on August 25, 2016 (GMT -0500)
Golden Triangle Regional

Weather History for KGTR - June, 2013

Change the Weather History Date:

Thursday, June 20, 2013

  Actual Average Record
Temperature  
Mean Temperature 78 °F -  
Max Temperature 89 °F 86 °F 96 °F (2006)
Min Temperature 68 °F 65 °F 60 °F (2008)
Cooling Degree Days 14    
Growing Degree Days 28 (Base 50)    
Moisture  
Dew Point 69 °F    
Average Humidity 80    
Maximum Humidity 100    
Minimum Humidity 49    
Precipitation  
Precipitation 0.00 in - - ()
Sea Level Pressure  
Sea Level Pressure 30.08 in    
Wind  
Wind Speed 2 mph (East)    
Max Wind Speed 12 mph    
Max Gust Speed -    
Visibility 9 miles    
Events      
Averages and records for this station are not official NWS values.
T = Trace of Precipitation, MM = Missing Value Source: NWS Daily Summary

Daily Weather History Graph

Daily Weather History Graph

Search for Another Location

Airport or City:

Trip Planner

Search our weather history database for the weather conditions in past years. The results will help you decide how hot, cold, wet, or windy it might be!

Date:

Astronomy

Jun. 20, 2013 Rise Set
Actual Time 5:44 AM CDT 8:07 PM CDT
Civil Twilight 5:15 AM CDT 8:36 PM CDT
Nautical Twilight 4:40 AM CDT 9:11 PM CDT
Astronomical Twilight 4:01 AM CDT 9:50 PM CDT
Moon 5:14 PM CDT (6/20) 3:04 AM CDT (6/20)
Length of Visible Light 15h 20m
Length of Day
14h 22m
Waxing Gibbous, 89% of the Moon is Illuminated
Jun 20
Waxing Gibbous
Jun 23
Full
Jun 29
Last Quarter
Jul 8
New
Jul 15
First Quarter

Hourly Weather History & Observations

Time (CDT) Temp. Heat Index Dew Point Humidity Pressure Visibility Wind Dir Wind Speed Gust Speed Precip Events Conditions
12:15 AM 71.6 °F - 69.8 °F 94% 30.04 in 10.0 mi Calm Calm - N/A   Clear
12:35 AM 71.6 °F - 69.8 °F 94% 30.04 in 10.0 mi Calm Calm - N/A   Clear
12:55 AM 71.6 °F - 69.8 °F 94% 30.05 in 10.0 mi Calm Calm - N/A   Clear
1:15 AM 69.8 °F - 68.0 °F 94% 30.05 in 5.0 mi Calm Calm - N/A   Clear
1:35 AM 68.0 °F - 66.2 °F 94% 30.05 in 8.0 mi Calm Calm - N/A   Clear
1:55 AM 69.8 °F - 68.0 °F 94% 30.05 in 10.0 mi Calm Calm - N/A   Clear
2:15 AM 69.8 °F - 68.0 °F 94% 30.04 in 9.0 mi NW 3.5 mph - N/A   Clear
2:35 AM 69.8 °F - 69.8 °F 100% 30.05 in 5.0 mi Calm Calm - N/A   Clear
2:55 AM 69.8 °F - 69.8 °F 100% 30.05 in 2.5 mi Calm Calm - N/A   Clear
3:15 AM 69.8 °F - 68.0 °F 94% 30.05 in 8.0 mi Calm Calm - N/A   Clear
3:35 AM 68.0 °F - 66.2 °F 94% 30.05 in 7.0 mi Calm Calm - N/A   Clear
3:55 AM 69.8 °F - 68.0 °F 94% 30.05 in 6.0 mi Calm Calm - N/A   Partly Cloudy
4:15 AM 69.8 °F - 68.0 °F 94% 30.06 in 8.0 mi Calm Calm - N/A   Mostly Cloudy
4:35 AM 69.8 °F - 68.0 °F 94% 30.06 in 10.0 mi East 3.5 mph - N/A   Partly Cloudy
4:55 AM 71.6 °F - 69.8 °F 94% 30.06 in 10.0 mi East 5.8 mph - N/A   Clear
5:15 AM 69.8 °F - 69.8 °F 100% 30.07 in 10.0 mi East 3.5 mph - N/A   Clear
5:35 AM 69.8 °F - 69.8 °F 100% 30.07 in 10.0 mi Calm Calm - N/A   Clear
5:45 AM 69.8 °F - 68.0 °F 94% 30.07 in 7.0 mi Calm Calm - N/A   Clear
6:45 AM 71.6 °F - 69.8 °F 94% 30.08 in 7.0 mi Calm Calm - N/A   Clear
7:45 AM 75.2 °F - 71.6 °F 89% 30.11 in 10.0 mi Calm Calm - N/A   Clear
8:45 AM 78.8 °F - 71.6 °F 78% 30.13 in 10.0 mi Calm Calm - N/A   Clear
9:45 AM 80.6 °F 84.6 °F 71.6 °F 74% 30.13 in 10.0 mi SSE 3.5 mph - N/A   Clear
10:45 AM 84.2 °F 88.4 °F 69.8 °F 62% 30.14 in 10.0 mi South 3.5 mph - N/A   Partly Cloudy
11:45 AM 84.2 °F 89.6 °F 71.6 °F 66% 30.13 in 10.0 mi ESE 3.5 mph - N/A   Scattered Clouds
12:45 PM 86.0 °F 90.4 °F 69.8 °F 58% 30.12 in 10.0 mi East 3.5 mph - N/A   Mostly Cloudy
2:50 PM 87.8 °F 92.6 °F 69.8 °F 55% 30.10 in 10.0 mi East 9.2 mph - N/A   Scattered Clouds
3:50 PM 87.8 °F 92.6 °F 69.8 °F 55% 30.08 in 10.0 mi NE 6.9 mph - N/A   Scattered Clouds
4:50 PM 89.6 °F 93.4 °F 68.0 °F 49% 30.08 in 10.0 mi NE 9.2 mph - N/A   Scattered Clouds
5:55 PM 87.8 °F 91.4 °F 68.0 °F 52% 30.06 in 10.0 mi East 11.5 mph - N/A   Partly Cloudy
6:50 PM 86.0 °F 89.4 °F 68.0 °F 55% 30.07 in 10.0 mi East 9.2 mph - N/A   Partly Cloudy
7:50 PM 84.2 °F 88.4 °F 69.8 °F 62% 30.07 in 10.0 mi ESE 4.6 mph - N/A   Clear
8:15 PM 82.4 °F 86.3 °F 69.8 °F 66% 30.08 in 10.0 mi SE 5.8 mph - N/A   Clear
8:35 PM 80.6 °F 83.9 °F 69.8 °F 70% 30.08 in 10.0 mi SE 4.6 mph - N/A   Clear
8:55 PM 82.4 °F 86.3 °F 69.8 °F 66% 30.08 in 10.0 mi ESE 5.8 mph - N/A   Clear
9:15 PM 80.6 °F 83.9 °F 69.8 °F 70% 30.09 in 10.0 mi East 5.8 mph - N/A   Clear
9:35 PM 80.6 °F 83.9 °F 69.8 °F 70% 30.10 in 10.0 mi East 5.8 mph - N/A   Clear
9:55 PM 78.8 °F - 69.8 °F 74% 30.11 in 10.0 mi East 5.8 mph - N/A   Clear
10:15 PM 78.8 °F - 69.8 °F 74% 30.11 in 10.0 mi East 5.8 mph - N/A   Clear
10:35 PM 78.8 °F - 69.8 °F 74% 30.11 in 10.0 mi East 5.8 mph - N/A   Clear
10:55 PM 78.8 °F - 69.8 °F 74% 30.12 in 10.0 mi East 5.8 mph - N/A   Clear
11:15 PM 77.0 °F - 69.8 °F 78% 30.12 in 10.0 mi East 5.8 mph - N/A   Clear
11:35 PM 75.2 °F - 69.8 °F 83% 30.12 in 10.0 mi East 5.8 mph - N/A   Clear
11:55 PM 75.2 °F - 69.8 °F 83% 30.13 in 10.0 mi East 5.8 mph - N/A   Clear